Le nostre stazioni meteo in Italia

Pubblicità
Il mio iltempo24.it
Torino Venaria, Italia (16060): Temperatura & dewpoint: 15.01.2020 03:00:00 - 21.01.2020 03:00:00 (CET)Torino Venaria, Italia (16060): velocità del vento: 15.01.2020 03:00:00 - 21.01.2020 03:00:00 (CET)Torino Venaria, Italia (16060): direzione del vento: 15.01.2020 03:00:00 - 21.01.2020 03:00:00 (CET)Torino Venaria, Italia (16060): reduced air pressure: 15.01.2020 03:00:00 - 21.01.2020 03:00:00 (CET)
Data & Tempo tt [°C] td [°C] ff [km/h] ff [kn] dd ppp [hPa]
21.01.2020 03:00:00 -3,4 -6,4 2 1 ONO 1043,7
21.01.2020 02:00:00 -2,9 -5,6 4 2 NO 1043,7
21.01.2020 01:00:00 -3,8 -6,6 4 2 O 1044,3
21.01.2020 00:00:00 -4,7 -8,2 4 2 NO 1044,7
20.01.2020 23:00:00 -4,7 -8,9 4 2 ONO 1044,2
20.01.2020 22:00:00 -3,9 -8,8 4 2 ONO 1044,0
20.01.2020 21:00:00 -3,5 -9,6 4 2 ONO 1043,4
20.01.2020 20:00:00 -1,9 -8,7 5 3 ONO 1042,7
20.01.2020 19:00:00 -0,9 -9,2 4 2 ONO 1041,8
20.01.2020 18:00:00 2,5 -8,4 0 0 N 1040,4
20.01.2020 17:00:00 5,7 -7,3 2 1 ONO 1039,6
20.01.2020 16:00:00 7,8 -6,1 2 1 O 1039,4
20.01.2020 15:00:00 7,5 -5,4 2 1 ONO 1039,3
20.01.2020 14:00:00 6,5 -4,7 5 3 O 1039,9
20.01.2020 13:00:00 4,2 -1,9 13 7 ONO 1040,9
20.01.2020 12:00:00 2,8 -0,7 11 6 ONO 1041,6
20.01.2020 11:00:00 2,1 -1,4 8 4 ONO 1041,7
20.01.2020 10:00:00 1,1 -2,2 8 4 ONO 1040,8
20.01.2020 09:00:00 -0,1 -4,1 9 5 NO 1040,3
20.01.2020 08:00:00 -0,8 -3,9 4 2 SSO 1039,2
20.01.2020 07:00:00 -1,7 -5,1 2 1 O 1038,3
20.01.2020 06:00:00 -1,9 -5,1 4 2 O 1037,4
20.01.2020 05:00:00 -2,1 -5,5 4 2 ONO 1036,8
20.01.2020 04:00:00 -1,8 -5,2 5 3 ONO 1036,5
20.01.2020 03:00:00 -2,3 -5,8 4 2 O 1036,1
20.01.2020 02:00:00 -1,6 -5,5 4 2 N 1035,6
20.01.2020 01:00:00 -2,4 -5,8 2 1 N 1035,3
20.01.2020 00:00:00 -3,1 -7,1 4 2 NO 1034,9
19.01.2020 23:00:00 -3,3 -8,6 4 2 O 1034,3
19.01.2020 22:00:00 -2,3 -7,9 0 0 N 1033,8
19.01.2020 21:00:00 -2,0 -8,2 5 3 ONO 1032,9
19.01.2020 20:00:00 -0,7 -7,8 5 3 NNO 1031,8
19.01.2020 19:00:00 -0,8 -9,5 4 2 O 1030,5
19.01.2020 18:00:00 2,9 -8,6 2 1 ESE 1029,2
19.01.2020 17:00:00 7,1 -7,1 4 2 ESE 1027,9
19.01.2020 16:00:00 7,6 -6,3 2 1 E 1027,2
19.01.2020 15:00:00 6,8 -7,0 5 3 NNE 1026,9
19.01.2020 14:00:00 7,3 -4,6 2 1 NNO 1026,6
19.01.2020 13:00:00 6,3 -1,5 2 1 S 1026,9
19.01.2020 12:00:00 3,5 2,1 4 2 SO 1027,4
19.01.2020 11:00:00 0,3 -0,1 0 0 N 1027,5
19.01.2020 10:00:00 -3,2 -4,2 5 3 O 1027,2
19.01.2020 09:00:00 -6,1 -7,6 2 1 O 1027,0
19.01.2020 08:00:00 -6,1 -7,8 2 1 NE 1026,4
19.01.2020 07:00:00 -6,2 -7,9 4 2 O 1025,9
19.01.2020 06:00:00 -5,9 -7,6 5 3 ONO 1025,2
19.01.2020 05:00:00 -5,7 -7,5 4 2 O 1024,9
19.01.2020 04:00:00 -5,7 -7,5 2 1 N 1024,7
19.01.2020 03:00:00 -4,7 -6,4 4 2 NO 1024,4
19.01.2020 02:00:00 -5,2 -7,5 5 3 ONO 1024,2
19.01.2020 01:00:00 -3,4 -5,1 2 1 NNO 1023,7
19.01.2020 00:00:00 -3,5 -5,4 4 2 ONO 1023,5
18.01.2020 23:00:00 -3,0 -4,9 8 4 O 1023,0
18.01.2020 22:00:00 -3,0 -5,4 5 3 O 1023,1
18.01.2020 21:00:00 -1,9 -4,3 4 2 ONO 1022,5
18.01.2020 20:00:00 -1,5 -4,9 4 2 ONO 1022,1
18.01.2020 19:00:00 0,0 -4,3 5 3 ONO 1021,6
18.01.2020 18:00:00 3,5 -3,2 0 0 N 1020,9
18.01.2020 17:00:00 6,5 -0,6 2 1 S 1020,3
18.01.2020 16:00:00 8,4 1,0 5 3 SO 1020,0
18.01.2020 15:00:00 8,1 2,1 8 4 SSO 1020,0
18.01.2020 14:00:00 7,7 2,7 8 4 SSO 1020,5
18.01.2020 13:00:00 7,6 4,0 9 5 SSO 1021,1
18.01.2020 12:00:00 4,9 4,8 2 1 ONO 1022,0
18.01.2020 11:00:00 2,6 2,6 4 2 O 1022,6
18.01.2020 10:00:00 -1,5 -1,9 2 1 SO 1023,0
18.01.2020 09:00:00 -2,0 -2,6 0 0 N 1023,2
18.01.2020 08:00:00 -0,9 -1,3 4 2 ONO 1022,6
18.01.2020 07:00:00 -0,6 -1,0 5 3 O 1022,1
18.01.2020 06:00:00 -0,2 -0,8 4 2 OSO 1021,8
18.01.2020 05:00:00 1,0 0,4 5 3 SO 1021,6
18.01.2020 04:00:00 2,0 1,6 9 5 SSO 1021,8
18.01.2020 03:00:00 2,2 1,8 9 5 SO 1021,8
18.01.2020 02:00:00 3,0 2,7 9 5 S 1021,5
18.01.2020 01:00:00 2,8 2,4 5 3 SE 1021,4
18.01.2020 00:00:00 2,4 1,7 5 3 SO 1021,3
17.01.2020 23:00:00 2,2 0,7 4 2 ENE 1021,2
17.01.2020 22:00:00 2,8 0,8 0 0 N 1021,1
17.01.2020 21:00:00 2,8 -0,4 4 2 SSO 1021,7
17.01.2020 20:00:00 3,5 -1,3 2 1 SSE 1021,6
17.01.2020 19:00:00 3,0 -3,0 4 2 SSE 1021,8
17.01.2020 18:00:00 4,6 -2,8 2 1 NNO 1021,8
17.01.2020 17:00:00 6,6 -2,4 2 1 ENE 1021,2
17.01.2020 16:00:00 7,4 -2,7 4 2 ENE 1021,5
17.01.2020 15:00:00 8,4 -1,5 4 2 E 1021,6
17.01.2020 14:00:00 6,6 -1,4 4 2 ENE 1022,2
17.01.2020 13:00:00 5,4 0,3 4 2 ONO 1023,3
17.01.2020 12:00:00 3,6 0,4 4 2 SSO 1024,6
17.01.2020 11:00:00 2,7 2,6 0 0 N 1025,1
17.01.2020 10:00:00 -1,5 -2,2 0 0 N 1025,9
17.01.2020 09:00:00 -5,1 -6,7 5 3 O 1026,4
17.01.2020 08:00:00 -5,8 -7,5 4 2 ONO 1026,5
17.01.2020 07:00:00 -5,2 -6,6 4 2 NO 1026,2
17.01.2020 06:00:00 -5,7 -7,4 4 2 O 1026,4
17.01.2020 05:00:00 -5,7 -7,5 4 2 ONO 1027,0
17.01.2020 04:00:00 -4,3 -5,9 5 3 ONO 1027,4
17.01.2020 03:00:00 -4,0 -5,7 2 1 O 1028,0
17.01.2020 02:00:00 -4,3 -6,2 2 1 O 1028,2
17.01.2020 01:00:00 -4,0 -5,9 4 2 NO 1028,8
17.01.2020 00:00:00 -4,4 -6,9 4 2 O 1029,3
16.01.2020 23:00:00 -3,0 -5,4 2 1 ONO 1029,3
16.01.2020 22:00:00 -3,4 -6,6 4 2 O 1029,6
16.01.2020 21:00:00 -2,4 -6,5 2 1 ONO 1029,8
16.01.2020 20:00:00 -1,9 -7,1 4 2 O 1030,1
16.01.2020 19:00:00 -0,3 -6,6 4 2 O 1030,0
16.01.2020 18:00:00 1,9 -6,1 2 1 ONO 1029,4
16.01.2020 17:00:00 7,3 -2,6 2 1 NE 1028,6
16.01.2020 16:00:00 7,7 -2,7 4 2 NE 1028,4
16.01.2020 15:00:00 7,5 -3,2 5 3 NE 1028,6
16.01.2020 14:00:00 8,0 -1,9 4 2 E 1028,9
16.01.2020 13:00:00 6,9 -1,4 5 3 E 1029,9
16.01.2020 12:00:00 4,7 0,4 2 1 ENE 1030,9
16.01.2020 11:00:00 2,7 2,7 0 0 N 1031,1
16.01.2020 10:00:00 -1,4 -2,1 0 0 N 1031,0
16.01.2020 09:00:00 -5,6 -7,3 4 2 O 1031,0
16.01.2020 08:00:00 -6,1 -7,8 4 2 ONO 1030,4
16.01.2020 07:00:00 -5,6 -7,1 2 1 NO 1029,9
16.01.2020 06:00:00 -5,5 -7,2 5 3 ONO 1029,4
16.01.2020 05:00:00 -5,6 -7,3 4 2 ONO 1029,1
16.01.2020 04:00:00 -5,1 -7,1 4 2 ONO 1029,2
16.01.2020 03:00:00 -5,0 -6,7 4 2 ONO 1029,3
16.01.2020 02:00:00 -5,1 -7,1 4 2 ONO 1029,3
16.01.2020 01:00:00 -3,9 -5,6 4 2 NO 1029,3
16.01.2020 00:00:00 -4,4 -6,9 5 3 ONO 1029,3
15.01.2020 23:00:00 -3,7 -6,2 5 3 ONO 1029,0
15.01.2020 22:00:00 -3,2 -6,2 4 2 ONO 1028,7
15.01.2020 21:00:00 -2,8 -6,8 4 2 ONO 1028,6
15.01.2020 20:00:00 -1,1 -5,4 2 1 NNO 1028,2
15.01.2020 19:00:00 0,1 -5,4 4 2 ONO 1027,8
15.01.2020 18:00:00 1,9 -5,6 2 1 OSO 1027,2
15.01.2020 17:00:00 6,1 -1,4 2 1 OSO 1026,5
15.01.2020 16:00:00 6,1 -1,9 4 2 S 1026,3
15.01.2020 15:00:00 7,0 -2,3 2 1 NNO 1026,1
15.01.2020 14:00:00 7,6 -1,2 4 2 OSO 1026,1
15.01.2020 13:00:00 5,9 0,0 2 1 S 1026,9
15.01.2020 12:00:00 3,4 1,7 4 2 SO 1027,8
15.01.2020 11:00:00 0,1 -0,3 2 1 ESE 1028,8
15.01.2020 10:00:00 -1,8 -2,5 4 2 ONO 1028,7
15.01.2020 09:00:00 -2,9 -3,7 5 3 ONO 1028,5
15.01.2020 08:00:00 -3,9 -4,9 2 1 ONO 1028,3
15.01.2020 07:00:00 -4,6 -6,0 4 2 ONO 1028,1
15.01.2020 06:00:00 -6,0 -7,8 5 3 O 1027,8
15.01.2020 05:00:00 -5,5 -7,3 2 1 O 1027,9
15.01.2020 04:00:00 -5,7 -7,4 5 3 ONO 1027,9
15.01.2020 03:00:00 -4,5 -5,9 4 2 ONO 1028,0

tt = Temperatura
td = dewpoint
ff = velocità del vento
dd = direzione del vento
ppp = reduced air pressure

Stazioni seguenti

WeatherPro
AMSI
MeteoEarth